Погода в Чамерове

Россия / Тверская область     58°27′55″N   37°22′08″E
темп.,
°C
ветер,
м/с
пор.,
м/с
влажн.,
%
обл.,
%
осадки,
мм/ч
давл.,
гПа
погр.,
м
19 апреля, пн
пн1900:00+4всв31075100 0.0 1028508
03:00+3всв398198 0.0 1029380
06:00+1всв398461 0.0 1029358
09:00+4в586617 0.0 1029607
12:00+7в68475 0.0 10301199
15:00+8в58370 0.0 10291467
18:00+7в48455 0.0 10281506
21:00+4в412617 0.0 1029400
20 апреля, вт
вт2000:00+1в311723 0.0 1029365
03:000в411787 0.0 1029355
06:00−1в411785 0.0 1028420
09:00+2в5105798 0.0 1027583
12:00+6вюв6951100 0.0 10261062
15:00+8в61049100 0.0 10241494
18:00+6вюв51266100 0.0 10211292
21:00+5в51164100 0.1 10191089
21 апреля, ср
ср2100:00+4в51362100 0.0 1016780
03:00+3в61364100 0.0 1013769
06:000всв51497100 1.9 1009751
09:00+1в51495100 4.1 1006728
12:00+1в51397100 2.4 1003567
15:00+1в3999100 6.4 1002309
18:00+1ююв12100100 1.9 100196
21:00+1юз41096100 2.6 1004759
22 апреля, чт
чт2200:00+2ююз51194100 0.0 1006758
03:00+2ююз51296100 0.1 1007707
06:00+3ююз51198100 0.1 1008696
09:00+3ююз51298100 0.9 1009671
12:00+7ююз51083100 0.2 10101062
15:00+9юз51075100 1.0 10121234
18:00+9ююз4107763 0.6 1013511
21:00+5ю31092100 0.6 1014200
23 апреля, пт
пт2300:00+4ю29955 0.0 1014158
03:00+4ю389612 0.0 1014145
06:00+4ююв3109652 0.0 1013203
09:00+9ю51083100 0.0 1012503
12:00+13ююв6116881 0.0 10111396
15:00+15ю6126598 0.7 10101603
18:00+13ююв61270100 0.8 10091021
21:00+11ююв61577100 1.1 1008790